Stündliche Wetter Holovyne

Heute, 15 Juni, Dienstag

Zeit Temperatur Niederschläge Wind Luftdruck Luftfeuchtigkeit
00:00 +15°C° 0 mm 2 m/S 743 mmHg 93%
01:00 +15°C° 0 mm 2 m/S 743 mmHg 94%
02:00 +15°C° 0 mm 2 m/S 743 mmHg 94%
03:00 +15°C° 0 mm 2 m/S 743 mmHg 95%
04:00 +15°C° 0 mm 2 m/S 743 mmHg 95%
05:00 +15°C° 0 mm 2 m/S 743 mmHg 95%
06:00 +16°C° 0 mm 3 m/S 743 mmHg 92%
07:00 +18°C° 0 mm 3 m/S 744 mmHg 88%
08:00 +19°C° 0 mm 4 m/S 744 mmHg 84%
09:00 +21°C° 0.1 mm 4 m/S 744 mmHg 79%
10:00 +22°C° 0.1 mm 3 m/S 743 mmHg 74%
11:00 +24°C° 0.1 mm 3 m/S 743 mmHg 69%
12:00 +25°C° 0.3 mm 4 m/S 743 mmHg 66%
13:00 +25°C° 0.3 mm 4 m/S 743 mmHg 64%
14:00 +26°C° 0.3 mm 4 m/S 742 mmHg 62%
15:00 +25°C° 0.3 mm 4 m/S 742 mmHg 67%
16:00 +23°C° 0.3 mm 4 m/S 742 mmHg 72%
17:00 +22°C° 0.3 mm 4 m/S 742 mmHg 77%
18:00 +21°C° 0.1 mm 4 m/S 742 mmHg 80%
19:00 +20°C° 0.1 mm 3 m/S 742 mmHg 84%
20:00 +19°C° 0.1 mm 3 m/S 742 mmHg 87%
21:00 +18°C° 0 mm 3 m/S 742 mmHg 89%
22:00 +17°C° 0 mm 3 m/S 742 mmHg 90%
23:00 +16°C° 0 mm 3 m/S 742 mmHg 92%

Morgen, 16 Juni, Mittwoch

Zeit Temperatur Niederschläge Wind Luftdruck Luftfeuchtigkeit
00:00 +16°C° 0 mm 3 m/S 742 mmHg 93%
01:00 +14°C° 0 mm 3 m/S 742 mmHg 93%
02:00 +14°C° 0 mm 3 m/S 742 mmHg 94%
03:00 +14°C° 0 mm 3 m/S 742 mmHg 94%
04:00 +14°C° 0 mm 3 m/S 742 mmHg 93%
05:00 +13°C° 0 mm 3 m/S 742 mmHg 93%
06:00 +15°C° 0 mm 4 m/S 742 mmHg 87%
07:00 +18°C° 0 mm 4 m/S 743 mmHg 81%
08:00 +19°C° 0 mm 4 m/S 743 mmHg 74%
09:00 +20°C° 0 mm 4 m/S 743 mmHg 71%
10:00 +22°C° 0 mm 5 m/S 743 mmHg 67%
11:00 +23°C° 0 mm 5 m/S 743 mmHg 64%
12:00 +23°C° 0 mm 5 m/S 743 mmHg 61%
13:00 +25°C° 0 mm 5 m/S 743 mmHg 59%
14:00 +25°C° 0 mm 5 m/S 743 mmHg 56%
15:00 +25°C° 0 mm 5 m/S 743 mmHg 59%
16:00 +25°C° 0 mm 4 m/S 743 mmHg 62%
17:00 +25°C° 0 mm 4 m/S 743 mmHg 65%
18:00 +23°C° 0 mm 4 m/S 743 mmHg 71%
19:00 +21°C° 0 mm 3 m/S 744 mmHg 77%
20:00 +19°C° 0 mm 3 m/S 744 mmHg 83%
21:00 +18°C° 0 mm 3 m/S 744 mmHg 86%
22:00 +18°C° 0 mm 3 m/S 744 mmHg 90%
23:00 +17°C° 0 mm 3 m/S 745 mmHg 93%

übermorgen, 17 Juni, Donnerstag

Zeit Temperatur Niederschläge Wind Luftdruck Luftfeuchtigkeit
00:00 +17°C° 0 mm 3 m/S 745 mmHg 94%
01:00 +16°C° 0 mm 3 m/S 745 mmHg 95%
02:00 +16°C° 0 mm 3 m/S 745 mmHg 95%
03:00 +16°C° 0 mm 3 m/S 745 mmHg 95%
04:00 +16°C° 0 mm 3 m/S 746 mmHg 95%
05:00 +16°C° 0 mm 3 m/S 746 mmHg 95%
06:00 +18°C° 0 mm 4 m/S 746 mmHg 90%
07:00 +19°C° 0 mm 4 m/S 746 mmHg 84%
08:00 +21°C° 0 mm 4 m/S 747 mmHg 79%
09:00 +22°C° 0 mm 5 m/S 747 mmHg 73%
10:00 +25°C° 0 mm 5 m/S 747 mmHg 68%
11:00 +26°C° 0 mm 5 m/S 747 mmHg 62%
12:00 +26°C° 0 mm 5 m/S 747 mmHg 61%
13:00 +27°C° 0 mm 5 m/S 747 mmHg 59%
14:00 +27°C° 0 mm 5 m/S 747 mmHg 57%
15:00 +27°C° 0 mm 5 m/S 747 mmHg 61%
16:00 +26°C° 0 mm 5 m/S 747 mmHg 65%
17:00 +26°C° 0 mm 5 m/S 747 mmHg 69%
18:00 +23°C° 0 mm 5 m/S 748 mmHg 72%
19:00 +22°C° 0 mm 4 m/S 748 mmHg 76%
20:00 +21°C° 0 mm 4 m/S 748 mmHg 79%
21:00 +19°C° 0 mm 4 m/S 748 mmHg 83%
22:00 +18°C° 0 mm 3 m/S 748 mmHg 87%
23:00 +17°C° 0 mm 3 m/S 749 mmHg 91%

18 Juni, Freitag

Zeit Temperatur Niederschläge Wind Luftdruck Luftfeuchtigkeit
00:00 +16°C° 0 mm 3 m/S 749 mmHg 92%
01:00 +16°C° 0 mm 3 m/S 749 mmHg 93%
02:00 +14°C° 0 mm 3 m/S 749 mmHg 95%
03:00 +14°C° 0 mm 3 m/S 749 mmHg 95%
04:00 +14°C° 0 mm 3 m/S 749 mmHg 95%
05:00 +14°C° 0 mm 3 m/S 749 mmHg 95%
06:00 +16°C° 0 mm 3 m/S 749 mmHg 89%
07:00 +18°C° 0 mm 3 m/S 749 mmHg 83%
08:00 +20°C° 0 mm 4 m/S 750 mmHg 77%
09:00 +21°C° 0 mm 4 m/S 750 mmHg 73%
10:00 +23°C° 0 mm 4 m/S 750 mmHg 69%
11:00 +25°C° 0 mm 5 m/S 750 mmHg 64%
12:00 +25°C° 0 mm 5 m/S 749 mmHg 61%
13:00 +26°C° 0 mm 5 m/S 749 mmHg 59%
14:00 +26°C° 0 mm 5 m/S 749 mmHg 56%
15:00 +26°C° 0 mm 5 m/S 749 mmHg 60%
16:00 +26°C° 0 mm 5 m/S 749 mmHg 64%
17:00 +25°C° 0 mm 4 m/S 749 mmHg 67%
18:00 +23°C° 0 mm 4 m/S 749 mmHg 74%
19:00 +21°C° 0 mm 4 m/S 749 mmHg 80%
20:00 +19°C° 0 mm 3 m/S 749 mmHg 87%
21:00 +18°C° 0 mm 3 m/S 749 mmHg 89%
22:00 +18°C° 0 mm 3 m/S 749 mmHg 91%
23:00 +17°C° 0 mm 3 m/S 750 mmHg 93%

19 Juni, Samstag

Zeit Temperatur Niederschläge Wind Luftdruck Luftfeuchtigkeit
00:00 +16°C° 0 mm 3 m/S 750 mmHg 94%
01:00 +16°C° 0 mm 3 m/S 750 mmHg 94%
02:00 +16°C° 0 mm 3 m/S 750 mmHg 95%
03:00 +16°C° 0 mm 3 m/S 750 mmHg 95%
04:00 +16°C° 0 mm 2 m/S 750 mmHg 95%
05:00 +16°C° 0 mm 2 m/S 750 mmHg 94%
06:00 +17°C° 0 mm 3 m/S 750 mmHg 89%
07:00 +19°C° 0 mm 3 m/S 750 mmHg 83%
08:00 +21°C° 0 mm 4 m/S 750 mmHg 77%
09:00 +22°C° 0 mm 4 m/S 750 mmHg 73%
10:00 +23°C° 0 mm 4 m/S 750 mmHg 70%
11:00 +25°C° 0 mm 4 m/S 750 mmHg 66%
12:00 +26°C° 0.1 mm 4 m/S 750 mmHg 63%
13:00 +26°C° 0.1 mm 3 m/S 749 mmHg 60%
14:00 +27°C° 0.1 mm 3 m/S 749 mmHg 57%
15:00 +26°C° 0 mm 3 m/S 749 mmHg 61%
16:00 +25°C° 0 mm 3 m/S 749 mmHg 64%
17:00 +25°C° 0 mm 3 m/S 749 mmHg 68%
18:00 +24°C° 0 mm 3 m/S 749 mmHg 71%
19:00 +22°C° 0 mm 3 m/S 749 mmHg 75%
20:00 +20°C° 0 mm 3 m/S 749 mmHg 78%
21:00 +20°C° 0 mm 2 m/S 749 mmHg 79%
22:00 +19°C° 0 mm 2 m/S 749 mmHg 79%
23:00 +19°C° 0 mm 2 m/S 749 mmHg 80%

20 Juni, Sonntag

Zeit Temperatur Niederschläge Wind Luftdruck Luftfeuchtigkeit
00:00 +19°C° 0 mm 2 m/S 749 mmHg 80%
01:00 +18°C° 0 mm 2 m/S 749 mmHg 80%
02:00 +18°C° 0 mm 2 m/S 749 mmHg 81%
03:00 +18°C° 0 mm 2 m/S 749 mmHg 81%
04:00 +18°C° 0 mm 2 m/S 749 mmHg 81%
05:00 +18°C° 0 mm 2 m/S 749 mmHg 81%
06:00 +19°C° 0 mm 2 m/S 749 mmHg 80%
07:00 +20°C° 0 mm 2 m/S 749 mmHg 78%
08:00 +21°C° 0 mm 2 m/S 749 mmHg 76%
09:00 +23°C° 0 mm 2 m/S 749 mmHg 70%
10:00 +24°C° 0 mm 3 m/S 749 mmHg 64%
11:00 +26°C° 0 mm 3 m/S 749 mmHg 58%
12:00 +26°C° 0 mm 3 m/S 749 mmHg 56%
13:00 +26°C° 0 mm 3 m/S 748 mmHg 55%
14:00 +27°C° 0 mm 3 m/S 748 mmHg 53%
15:00 +27°C° 0 mm 3 m/S 748 mmHg 56%
16:00 +26°C° 0 mm 2 m/S 748 mmHg 59%
17:00 +26°C° 0 mm 2 m/S 748 mmHg 61%
18:00 +25°C° 0 mm 2 m/S 748 mmHg 67%
19:00 +23°C° 0 mm 2 m/S 748 mmHg 72%
20:00 +21°C° 0 mm 2 m/S 748 mmHg 78%
21:00 +20°C° 0 mm 2 m/S 748 mmHg 81%
22:00 +19°C° 0 mm 2 m/S 747 mmHg 84%
23:00 +18°C° 0 mm 2 m/S 747 mmHg 87%
Mehr zeigen

Wir brauchen deine Erlaubnis

Meteoprog und unser Service Anbieter werden persönliche Daten aufbewahren, so wie Cookies, Geräte Bezeichnung oder ähnliche Technologien von deinem Gerät und Prozess, so wie Persönliche Daten Inhalte und Werbungen, genauso wie social Media und den Verkehr zu analysieren.

  • Aufbewahrung und/oder Zugang zu deiner Geräte Informationen.

    Cookies, Geräte Bezeichnung oder andere Informationen, können aufbewahrt oder Zugang zu deinem Gerät erhalten, für den Grund, der oben angegeben wird.

  • Personalisierte Werbung und Inhalte, Messungen, Einblick in das Publikum und Produkt Entwicklung.

    Werbungen und Inhalte können personalisiert werden, basierend auf ein Profil. Mehr Daten können besser personalisierte Werbungen und Inhalte hinzufügen. Werbung und Inhalte können gezeigt und gemessen werden. Einblicke über das Publikum, welche die Werbung gesehen haben und den Inhalt, können abgeleitet werden. So wie Daten können genutzt werden, um es zu verbessern oder die Benutzer Erfahrung zu verbessern das System und die Software.

Wenn du “Ich stimme zu” klickst, erlaubst du uns, die Cookies zu benutzen die Geräte Bezeichnung, den Web oder ähnliche Technologien zu benutzen. Deine Settings, können in deinem Gerät bei deinem Browser geändert werden.

Für den bestimmten Zweck, berechtigten Interessen beruhen darauf, mehr als auf den Inhalt. Du kannst mehr darüber in unseren Privaten und Cookie Politik lesen.